Temp_Advection
nan nan nan nan nan nan nan nan nan nan nan nan nan nan nan nan nan nan nan nan nan nan nan nan nan nan nan nan nan nan nan nan nan nan nan nan nan nan nan nan nan nan
nan 0 0 0 0 0 0 0 1 1 0 0 -0 -0 -0 -0 -0 0 0 -0 -0 -0 -0 -0 -0 -0 -0 -0 -0 -0 -0 -0 -0 -0 -0 0 -0 -0 -0 -1 -1 nan
nan 0 0 1 1 0 1 1 1 1 0 -0 -0 -0 -0 -0 0 0 0 0 -0 -0 -0 -0 -0 -0 -0 -0 -0 -0 -0 -0 -0 -0 -0 -0 -0 -0 -1 -1 -1 nan
nan 0 1 1 1 1 1 1 1 1 0 0 -0 -0 -0 0 0 -0 -0 -0 -0 -0 -0 -0 -0 -0 -0 -0 -0 -0 -0 -0 -0 -0 -0 -0 -1 -1 -1 -1 -0 nan
nan 1 1 1 1 1 1 0 0 1 0 0 -0 -0 -0 -0 -0 -0 -0 0 0 0 -0 -0 -0 -0 -0 -0 -0 -0 -0 -0 -0 -0 -0 -0 -1 -0 -1 -0 -0 nan
nan 1 1 1 1 1 0 0 1 1 0 0 -0 -0 -0 -0 -0 0 0 0 0 -0 -0 -0 -0 -0 -0 -0 -0 -0 -0 -0 -0 -0 -0 -0 -0 -0 -0 -0 0 nan
nan 1 1 1 1 1 0 0 1 1 0 -0 -1 -0 -0 -0 0 0 0 0 0 -0 -0 -0 -0 -0 -0 -0 -0 -0 -0 -0 -0 -0 -0 -0 -0 -0 -0 0 -0 nan
nan 1 1 1 1 1 1 1 1 0 -1 -1 -0 -0 0 0 0 0 0 0 0 -0 -0 -0 -0 0 -0 -0 -0 -0 -0 -0 -0 -0 -0 -0 -0 -0 -0 -0 -0 nan
nan 1 1 1 1 1 1 1 0 -1 -1 -0 0 0 0 0 0 0 0 0 0 0 0 0 0 0 -0 -0 -0 -0 -0 -0 -0 -0 0 -0 -0 -0 -0 -0 -0 nan
nan 1 1 1 1 1 1 1 -0 -1 -0 0 0 0 0 0 0 0 0 0 0 0 0 0 0 0 0 -0 -0 -0 -0 -0 -0 -0 -0 -0 -0 -0 -0 -0 -1 nan
nan 0 0 0 1 0 0 -0 -0 -0 0 0 0 0 0 0 0 0 0 0 0 0 0 0 0 0 0 0 -0 -0 0 -0 -0 -0 -0 -0 -0 -1 -1 -1 -1 nan
nan 0 0 1 1 0 0 0 0 0 0 0 0 0 0 0 0 0 0 0 0 0 0 0 -0 -0 0 0 0 -0 0 -0 -0 -0 -0 -0 -1 -1 -1 -1 -1 nan
nan 0 1 1 1 1 1 1 0 0 0 0 0 0 0 0 0 0 0 0 0 0 0 0 0 -0 0 0 -0 -0 -0 -0 -0 -0 -0 -0 -1 -1 -1 -1 -0 nan
nan 1 1 1 1 1 1 1 0 0 0 0 0 0 0 0 0 0 0 0 0 0 -0 -0 -0 -0 0 -0 -0 -0 -0 -0 -0 -0 -0 -0 -1 -1 -1 -0 -0 nan
nan 1 1 1 0 0 0 0 0 0 0 0 0 0 0 0 0 0 0 0 -0 -0 -0 -0 -0 -0 0 -0 -0 -0 -0 -0 -0 -0 -0 -0 -1 -1 -0 0 -0 nan
nan 1 0 0 0 0 0 0 0 0 0 0 0 0 0 0 0 0 0 0 0 -0 -0 -0 -0 0 0 -0 -0 -0 -0 -0 -0 -0 -0 -1 -0 -0 -0 -0 -1 nan
nan 0 0 0 0 0 0 0 0 0 0 0 0 0 0 0 0 0 0 0 0 -0 -0 -0 0 0 0 -0 -0 -0 -0 -0 -0 -0 -0 -0 -0 0 -0 -0 -1 nan
nan 0 0 0 0 0 0 0 0 0 0 0 0 0 0 0 0 0 -0 -0 -0 -0 0 0 0 0 0 -0 -0 -0 -0 -0 -0 -0 -0 -0 0 0 -0 -0 -0 nan
nan 0 0 0 0 0 0 0 0 0 -0 0 0 0 0 0 0 0 -0 -0 0 0 0 0 0 0 -0 -0 -0 -0 -0 -0 -0 -0 -0 0 0 -0 -0 -0 -0 nan
nan 0 0 0 0 0 0 0 0 -0 -0 0 0 0 0 0 -0 -0 -0 0 0 0 0 0 0 -0 -0 -0 -0 -0 -0 -0 -0 -0 0 0 -0 -0 -0 -0 -0 nan
nan 1 1 0 0 0 0 0 0 -0 -0 0 0 0 0 0 0 0 0 0 0 0 0 0 -0 -0 -0 -0 -0 -0 -0 -0 -0 -0 0 0 -0 -0 -0 0 -0 nan
nan 0 0 0 0 -0 -0 0 -0 -0 0 0 0 0 0 0 0 0 0 0 0 0 0 0 -0 -0 -0 -0 -0 -0 -0 -0 -0 -0 0 0 0 0 0 0 -0 nan
nan -0 -0 -0 -0 -1 -0 0 -0 -0 -0 0 0 0 0 0 0 0 0 0 0 0 0 0 0 -0 -0 -0 -0 -0 -0 -0 -0 0 0 0 0 0 0 -0 -0 nan
nan -0 -0 -0 -1 -0 -0 -0 -0 -0 -0 0 0 0 0 0 0 0 0 0 0 0 0 0 0 0 -0 -0 -0 -0 -0 -0 0 0 0 0 0 -0 -0 -0 -0 nan
nan -0 -0 -1 -1 -0 0 0 -0 -0 -0 0 0 0 0 0 0 0 0 0 0 0 0 0 0 0 -0 -0 -0 -0 -0 -0 0 0 0 0 0 -0 -0 -0 0 nan
nan nan nan nan nan nan nan nan nan nan nan nan nan nan nan nan nan nan nan nan nan nan nan nan nan nan nan nan nan nan nan nan nan nan nan nan nan nan nan nan nan nan
Wind_Speed
20 20 19 18 17 16 15 15 14 14 14 13 12 11 8 5 4 3 2 1 1 2 3 4 4 4 5 5 6 7 7 7 8 8 8 9 10 10 11 12 12 13
20 20 19 18 17 17 16 15 14 14 13 12 11 9 6 4 3 2 1 0 1 2 3 4 4 5 5 5 6 6 6 7 7 7 8 9 9 10 10 11 12 12
21 20 19 18 17 16 16 14 14 13 12 12 11 8 5 4 3 2 1 0 1 3 3 4 4 5 5 5 5 5 6 6 7 8 8 8 9 9 10 11 12 13
21 20 19 17 16 15 14 14 13 14 14 13 11 7 4 4 3 2 1 1 2 3 3 4 4 4 4 4 4 5 5 6 8 8 8 7 8 9 10 11 12 13
20 19 18 17 16 15 14 13 14 15 15 13 10 6 4 3 2 2 1 1 2 2 2 3 3 3 3 3 4 4 5 6 8 7 6 7 9 10 11 11 12 13
20 18 17 17 16 15 14 14 15 16 15 13 9 6 5 3 3 3 3 2 1 1 2 2 3 2 2 2 3 3 4 6 8 6 6 8 10 10 11 12 13 13
19 19 17 17 16 15 16 17 17 16 15 12 9 7 5 5 5 4 3 2 0 0 1 2 2 2 2 2 3 3 5 7 7 6 7 9 10 10 12 12 12 12
19 19 18 18 18 18 18 18 18 16 14 10 9 8 7 7 6 4 3 2 1 1 2 2 2 2 2 2 3 4 5 7 7 7 7 9 9 10 11 11 11 12
20 20 20 20 20 20 20 19 18 15 12 11 9 8 8 8 6 4 3 3 3 3 3 3 3 2 2 2 3 4 5 6 7 7 7 8 9 10 11 11 12 13
21 20 20 20 21 21 20 18 16 14 12 10 8 8 8 7 6 5 4 4 4 4 4 4 3 3 2 2 3 4 5 5 6 7 7 8 9 10 11 12 13 15
19 19 19 19 19 19 17 16 15 14 12 9 7 7 7 7 7 6 6 6 5 5 5 5 4 3 2 2 3 4 5 4 4 5 6 7 9 11 13 15 15 16
17 17 17 18 18 18 17 16 15 12 10 8 8 6 6 7 7 7 7 7 6 6 6 5 4 3 2 2 3 4 4 4 4 4 5 7 10 13 15 16 16 16
17 18 18 18 17 17 16 15 13 11 9 8 8 7 7 7 8 8 8 7 7 7 6 5 4 3 2 2 3 4 4 4 4 5 6 8 10 13 15 16 17 16
19 18 18 17 16 16 15 14 13 11 9 8 7 8 8 8 8 8 8 8 8 7 7 6 5 3 2 2 3 4 4 4 5 5 6 8 10 12 14 16 16 15
18 18 17 17 16 16 16 15 13 12 10 9 8 8 9 9 9 8 8 8 8 8 7 6 5 4 3 2 2 4 4 4 4 5 6 8 9 11 13 15 15 14
18 17 17 18 18 17 17 16 14 13 11 9 8 9 10 10 10 10 9 8 8 8 7 6 5 4 4 3 2 3 4 5 5 5 6 7 8 10 12 13 14 13
18 18 18 19 19 18 17 16 15 13 12 10 9 10 11 11 10 10 10 9 8 7 7 7 6 5 4 3 3 3 4 5 5 5 5 6 7 8 11 12 12 12
20 19 20 20 19 18 17 16 15 13 11 10 11 12 12 11 11 10 10 10 9 8 8 7 6 5 5 4 4 3 3 5 5 5 5 5 6 8 10 10 10 9
21 21 21 21 20 19 18 17 15 13 11 11 12 13 13 12 11 11 11 10 9 8 8 7 7 6 6 5 4 3 2 3 4 4 4 4 5 7 9 9 8 7
21 22 22 22 21 20 19 17 16 14 12 12 13 13 13 13 12 12 11 11 10 9 8 8 8 7 7 5 4 3 2 3 3 3 3 4 5 7 9 8 7 6
22 22 22 22 21 20 19 18 16 15 13 13 14 14 13 13 13 12 12 11 10 9 9 8 8 8 7 5 4 3 2 2 2 1 2 3 5 7 8 6 6 7
23 24 24 23 22 21 20 18 17 15 13 13 14 14 14 14 13 13 12 12 11 10 9 8 8 8 7 6 4 2 2 2 1 1 1 3 4 6 5 5 7 9
25 25 25 24 24 22 20 19 19 17 14 13 14 15 15 14 14 13 12 11 11 10 8 7 7 7 7 6 4 2 1 1 1 0 1 2 3 3 3 5 8 9
25 26 25 25 24 22 20 21 20 18 15 13 13 14 15 14 14 14 13 12 11 10 9 7 7 7 7 6 5 3 2 0 0 1 1 2 2 1 3 6 7 8
25 25 25 25 24 22 21 21 21 18 16 14 14 14 15 15 15 14 13 12 11 10 9 8 7 7 7 7 6 4 2 2 1 1 1 1 0 1 3 5 6 7
24 24 23 23 23 22 21 21 20 19 17 16 16 16 16 16 15 14 13 13 12 11 10 9 8 7 7 6 6 5 3 3 3 2 1 1 2 1 2 3 5 7
Wind_Direction
214 217 216 214 214 219 227 235 242 250 258 266 274 282 286 289 283 270 264 267 301 318 325 328 333 336 334 336 339 340 346 351 357 7 8 8 12 14 12 13 15 17
214 217 216 216 217 221 229 236 243 251 260 269 279 289 289 275 258 239 230 255 321 332 336 333 337 340 336 338 342 347 356 358 8 18 12 13 18 15 15 19 21 21
214 217 218 220 223 226 231 234 242 253 263 271 282 290 274 240 227 208 182 25 346 334 333 334 336 335 334 339 346 354 3 9 21 24 14 15 21 19 23 27 25 22
213 216 218 222 225 229 233 236 247 260 267 274 282 278 243 212 201 186 171 325 318 321 325 331 335 338 341 348 355 3 9 21 31 25 13 21 32 32 34 32 26 24
213 215 218 223 227 230 232 238 253 263 266 273 275 255 217 194 187 199 228 259 282 309 326 338 351 1 4 1 3 9 16 32 41 33 22 38 47 44 41 34 28 27
212 215 218 223 227 230 234 243 255 259 264 271 262 232 205 189 193 211 221 225 254 318 345 18 32 36 26 17 14 22 36 50 55 49 41 51 53 49 45 35 28 27
214 216 218 223 227 232 239 247 251 255 262 261 238 214 199 189 196 201 203 206 218 41 60 67 70 78 69 48 38 40 56 66 68 63 55 58 56 50 44 34 26 26
219 220 222 226 231 237 242 245 249 254 254 237 214 202 189 181 185 186 183 177 148 123 118 119 119 117 95 69 47 42 61 73 74 68 60 58 54 46 43 36 29 29
222 224 227 231 235 239 241 242 245 244 229 210 200 190 179 174 170 166 166 162 151 152 154 149 145 135 106 72 42 39 59 77 78 72 62 55 50 46 46 43 36 34
223 227 230 233 234 235 235 234 231 219 205 197 187 173 167 166 160 157 159 158 158 163 163 158 156 143 105 66 45 48 60 73 80 76 64 53 49 48 47 44 39 37
223 225 224 223 221 220 218 214 209 203 195 186 175 165 161 158 157 158 156 154 158 163 164 162 158 141 109 81 63 59 60 69 85 85 67 55 50 48 45 41 37 36
211 207 203 203 202 201 201 200 199 197 189 176 169 168 165 161 159 156 151 150 157 161 161 162 158 147 126 95 70 64 68 80 95 92 71 58 53 50 46 39 35 34
194 192 192 193 193 194 195 196 195 190 184 175 168 166 165 161 157 153 149 151 158 159 160 161 161 153 127 100 79 75 84 97 102 94 74 61 53 48 44 38 35 35
189 190 192 192 192 194 194 194 192 187 181 175 164 159 161 157 153 153 153 155 158 159 162 163 159 153 134 112 94 87 97 112 108 92 72 59 51 44 38 34 35 36
185 187 192 195 196 197 196 194 192 186 179 173 162 158 162 158 156 159 158 159 160 161 163 164 163 162 148 125 106 100 109 121 113 92 71 56 47 39 31 28 32 36
184 188 195 198 197 197 196 194 192 187 181 174 166 164 168 165 162 162 161 162 164 163 166 169 168 165 151 132 120 105 98 103 107 98 75 52 40 33 24 20 26 32
189 192 196 197 195 196 195 193 192 191 187 181 175 172 174 171 166 164 162 164 167 168 172 173 168 161 151 140 129 99 77 81 91 97 80 53 31 24 19 16 21 26
194 196 196 197 197 198 198 197 197 197 193 186 180 179 177 172 168 168 167 168 170 174 175 170 165 159 152 145 131 106 77 77 85 89 79 52 23 16 14 13 19 24
199 201 200 200 201 202 202 201 201 200 194 188 184 181 177 173 171 173 173 171 171 173 172 168 164 157 146 137 132 122 104 92 86 79 64 35 12 10 8 9 18 24
203 203 202 201 200 202 203 201 201 198 192 189 188 182 177 176 176 177 177 174 169 170 171 167 160 151 142 138 141 139 124 107 94 73 45 13 1 3 2 5 21 27
203 202 201 201 200 201 201 200 201 200 193 189 186 182 179 179 179 179 178 173 167 167 169 165 156 147 142 141 142 139 126 110 99 66 22 355 352 356 356 9 35 38
204 201 201 202 202 203 203 203 205 205 199 190 184 182 181 180 179 178 177 173 167 164 165 163 156 148 141 139 137 131 123 112 100 42 350 346 347 347 355 27 41 34
204 201 202 204 206 208 208 208 210 208 204 197 189 185 182 179 178 176 174 172 166 159 160 163 159 151 141 136 132 119 103 98 97 214 302 341 346 348 22 45 35 25
204 204 207 208 211 214 211 210 212 211 208 202 195 189 184 179 178 175 170 167 163 158 159 164 163 154 143 135 132 122 112 122 202 217 262 329 345 21 55 49 35 24
203 207 211 211 213 214 212 213 213 211 208 202 196 192 187 179 178 177 170 165 163 162 161 162 162 155 144 135 129 125 130 154 179 214 247 283 239 83 59 52 41 27
203 209 211 212 214 212 211 214 214 211 207 200 192 190 187 181 177 175 172 166 163 164 164 161 158 151 141 132 126 126 134 146 157 177 194 194 186 154 58 51 41 26
Height
1533 1534 1536 1537 1539 1540 1541 1542 1542 1543 1543 1543 1542 1541 1541 1540 1541 1541 1541 1542 1542 1542 1542 1542 1542 1542 1542 1543 1543 1544 1544 1544 1543 1543 1543 1542 1542 1541 1541 1541 1540 1540
1534 1535 1536 1537 1538 1540 1541 1541 1542 1542 1542 1541 1540 1540 1540 1540 1541 1541 1541 1542 1542 1542 1542 1542 1542 1543 1543 1544 1544 1544 1545 1545 1544 1544 1543 1542 1542 1542 1542 1542 1541 1541
1534 1535 1536 1537 1538 1539 1540 1541 1541 1541 1541 1540 1540 1540 1540 1541 1541 1541 1542 1542 1542 1542 1542 1542 1543 1543 1544 1545 1545 1545 1545 1545 1544 1544 1544 1543 1543 1543 1543 1542 1542 1541
1534 1535 1536 1537 1538 1539 1540 1540 1540 1540 1540 1540 1540 1541 1541 1541 1541 1541 1542 1542 1542 1542 1542 1543 1544 1544 1545 1545 1546 1546 1545 1545 1545 1544 1544 1544 1544 1544 1543 1543 1543 1542
1534 1535 1536 1537 1538 1539 1539 1539 1540 1539 1539 1540 1540 1540 1541 1541 1541 1541 1542 1542 1542 1542 1543 1544 1545 1545 1546 1546 1546 1546 1546 1546 1546 1545 1545 1545 1545 1545 1544 1544 1543 1542
1534 1535 1536 1536 1537 1538 1538 1538 1539 1539 1539 1540 1540 1540 1541 1541 1541 1542 1542 1542 1543 1543 1543 1544 1545 1546 1546 1547 1547 1547 1547 1547 1547 1546 1546 1546 1546 1545 1545 1544 1544 1543
1533 1534 1535 1536 1536 1537 1538 1538 1538 1539 1539 1540 1540 1541 1541 1541 1542 1542 1542 1543 1543 1543 1544 1545 1546 1547 1547 1548 1548 1547 1547 1547 1547 1547 1547 1546 1546 1546 1546 1545 1544 1544
1533 1534 1534 1535 1536 1536 1537 1537 1537 1538 1539 1540 1540 1541 1541 1542 1542 1542 1543 1543 1543 1544 1545 1546 1547 1547 1548 1548 1548 1548 1548 1548 1548 1548 1547 1547 1547 1547 1546 1546 1545 1544
1532 1533 1534 1534 1535 1535 1535 1536 1537 1538 1539 1540 1541 1541 1542 1542 1542 1543 1543 1543 1544 1545 1546 1547 1547 1548 1548 1549 1548 1548 1548 1548 1548 1548 1548 1548 1548 1547 1547 1547 1546 1545
1531 1532 1532 1533 1533 1534 1535 1536 1537 1538 1539 1540 1541 1541 1542 1542 1542 1543 1544 1544 1545 1546 1547 1548 1548 1548 1549 1549 1549 1549 1549 1549 1549 1549 1549 1548 1548 1548 1548 1548 1547 1546
1529 1530 1531 1531 1532 1533 1534 1536 1537 1538 1539 1540 1541 1542 1542 1543 1543 1544 1544 1545 1546 1547 1547 1548 1548 1549 1549 1549 1549 1549 1550 1550 1549 1550 1549 1549 1549 1549 1549 1548 1548 1547
1528 1529 1530 1531 1532 1533 1534 1536 1537 1538 1539 1540 1541 1542 1542 1543 1544 1544 1545 1546 1547 1547 1548 1549 1549 1549 1549 1550 1550 1550 1550 1550 1550 1550 1550 1550 1550 1550 1550 1549 1549 1548
1528 1529 1530 1531 1533 1534 1535 1536 1537 1539 1540 1540 1541 1542 1543 1544 1544 1545 1546 1546 1547 1548 1549 1549 1550 1550 1550 1550 1551 1551 1551 1551 1551 1551 1551 1551 1551 1551 1551 1551 1550 1549
1528 1529 1530 1532 1533 1534 1535 1536 1537 1539 1540 1540 1541 1542 1543 1544 1545 1545 1546 1547 1548 1549 1549 1550 1550 1550 1551 1551 1551 1551 1551 1551 1552 1552 1552 1552 1552 1552 1552 1551 1551 1550
1528 1529 1531 1532 1533 1534 1535 1536 1538 1539 1540 1540 1541 1542 1543 1544 1545 1546 1547 1548 1548 1549 1550 1550 1551 1551 1552 1552 1552 1552 1552 1552 1553 1553 1553 1553 1553 1553 1552 1552 1551 1551
1528 1530 1531 1532 1533 1534 1535 1536 1538 1539 1540 1541 1541 1542 1544 1545 1546 1547 1548 1549 1549 1550 1551 1551 1552 1552 1552 1552 1552 1552 1553 1553 1554 1554 1554 1554 1554 1554 1553 1553 1552 1551
1528 1529 1531 1532 1534 1535 1536 1537 1538 1539 1540 1541 1541 1543 1544 1545 1547 1548 1548 1549 1550 1551 1552 1552 1552 1553 1553 1553 1553 1553 1554 1554 1555 1555 1555 1555 1554 1554 1554 1553 1552 1552
1527 1529 1531 1533 1534 1536 1536 1537 1538 1539 1540 1541 1542 1543 1544 1546 1547 1548 1549 1550 1551 1552 1552 1552 1553 1553 1553 1554 1554 1554 1554 1555 1555 1555 1555 1555 1555 1555 1555 1554 1553 1552
1527 1528 1530 1532 1534 1536 1537 1538 1539 1540 1540 1541 1542 1543 1545 1546 1548 1549 1550 1550 1551 1552 1553 1553 1553 1554 1554 1554 1554 1555 1555 1555 1556 1556 1556 1556 1555 1555 1555 1554 1553 1552
1527 1529 1531 1533 1534 1536 1537 1538 1539 1540 1541 1542 1543 1544 1545 1547 1548 1549 1550 1551 1551 1552 1553 1553 1554 1554 1554 1555 1555 1555 1556 1556 1556 1556 1556 1556 1556 1555 1555 1554 1553 1552
1527 1529 1532 1534 1536 1537 1537 1539 1540 1541 1542 1542 1543 1545 1546 1547 1549 1550 1550 1551 1552 1553 1553 1554 1554 1554 1555 1555 1555 1555 1555 1556 1556 1556 1556 1556 1556 1555 1555 1554 1553 1551
1527 1529 1532 1534 1536 1537 1537 1538 1540 1541 1542 1543 1543 1545 1546 1548 1549 1550 1551 1552 1552 1553 1554 1554 1554 1555 1555 1555 1555 1555 1555 1555 1556 1556 1556 1556 1556 1555 1555 1553 1552 1551
1526 1528 1530 1533 1535 1536 1537 1538 1539 1541 1542 1543 1544 1546 1547 1548 1549 1550 1551 1552 1553 1553 1554 1554 1554 1555 1555 1555 1555 1555 1555 1555 1556 1556 1556 1556 1556 1555 1554 1553 1552 1551
1526 1528 1530 1532 1534 1535 1536 1538 1539 1541 1542 1543 1545 1546 1547 1548 1549 1550 1551 1552 1553 1553 1554 1554 1555 1555 1555 1555 1555 1554 1555 1555 1555 1556 1556 1556 1555 1555 1554 1553 1552 1551
1524 1527 1529 1531 1533 1535 1536 1537 1539 1540 1542 1544 1545 1546 1547 1548 1549 1550 1551 1552 1552 1553 1554 1554 1555 1555 1555 1554 1554 1554 1555 1555 1555 1555 1555 1555 1555 1554 1554 1553 1552 1552
1522 1525 1528 1530 1532 1534 1536 1537 1539 1540 1542 1544 1545 1546 1547 1548 1549 1550 1551 1552 1552 1553 1554 1554 1554 1554 1554 1554 1554 1554 1555 1555 1555 1555 1555 1555 1555 1554 1554 1553 1553 1552